(218284) = 2003 GS37

Discovered at Palomar on 2003-04-07 by NEAT.

Orbit

Orbit type: Main Belt

Note: WebGL enabled browser required.

epoch2024-03-31.0
epoch JD2460400.5
perihelion date2023-05-19.92709
perihelion JD2460084.42709
argument of perihelion (°)329.92765
ascending node (°)42.96560
inclination (°)6.79399
eccentricity0.0478052
perihelion distance (AU)2.5897742
Tisserand w.r.t. Jupiter3.3
ΔV w.r.t. Earth (km/sec)10.3
semimajor axis (AU)2.7197945
mean anomaly (°)69.45236
mean daily motion (°/day)0.21973520
aphelion distance (AU)2.850
period (years)4.49
P-vector [x]0.97238931
P-vector [y]0.23066481
P-vector [z]0.03539465
Q-vector [x]-0.21899340
Q-vector [y]0.84954740
Q-vector [z]0.47990739
absolute magnitude15.88
phase slope0.15
uncertainty0
referenceMPEC 2024-E144
observations used658
oppositions17
arc length (days)10868
first opposition used1994
last opposition used2024
residual rms (arc-secs)0.71
perturbers coarse indicatorM-v
perturbers precise indicator003Ek
first observation date used1994-04-03.0
last observation date used2024-01-04.0
computer nameMPCLINUX
JD of orbit computation2456966.747272
perihelion JD uncertainty (days)2.3195E-04
argument of perihelion uncertainty (°)6.2267E-05
ascending node uncertainty (°)3.4347E-05
inclination uncertainty (°)6.8887E-06
eccentricity uncertainty 5.9866E-08
perihelion distance uncertainty (AU)1.6770E-07
Minimum Orbit Intersection Distances (in AU)
for orbit epoch: 2460400.5, reference: E2024-EE4
Mercury2.21955
Venus1.86407
Earth1.59334
Mars1.12127
Jupiter2.36307
Saturn6.36306
Uranus15.6145
Neptune27.2234

Observations

673 total observations over interval: 1994 04 03.39968 – 2024 01 04.413167
These data are available for download (format description).

Date (UT) J2000 RA J2000 Dec Magn Location Ref
1994 04 03.39968 13 08 37.57 -01 57 42.5   691 – Steward Observatory, Kitt Peak-Spacewatch MPS 175710
1994 04 03.42329 13 08 36.30 -01 57 36.8   691 – Steward Observatory, Kitt Peak-Spacewatch MPS 175710
1994 04 03.44674 13 08 35.03 -01 57 31.5 19.5 V 691 – Steward Observatory, Kitt Peak-Spacewatch MPS 175710
2000 09 24.27485 23 32 40.36 -12 02 45.2 19.6   704 – Lincoln Laboratory ETS, New Mexico MPS 155288
2000 09 24.28934 23 32 39.64 -12 02 48.3 19.6   704 – Lincoln Laboratory ETS, New Mexico MPS 155288
2000 09 24.30467 23 32 38.79 -12 02 49.1 19.4   704 – Lincoln Laboratory ETS, New Mexico MPS 155288
2000 09 24.31934 23 32 38.18 -12 02 53.5 19.7   704 – Lincoln Laboratory ETS, New Mexico MPS 155288
2002 01 08.32154 06 55 30.18 +32 07 59.5 19.2   704 – Lincoln Laboratory ETS, New Mexico MPS 155288
2002 01 08.35345 06 55 28.04 +32 08 03.8 19.9   704 – Lincoln Laboratory ETS, New Mexico MPS 155288
2002 01 08.36911 06 55 27.04 +32 08 05.2 19.0   704 – Lincoln Laboratory ETS, New Mexico MPS 155288
2003 03 29.35288 13 24 37.98 -03 51 39.8 19.7 R 699 – Lowell Observatory-LONEOS MPS 78461
2003 03 29.36285 13 24 37.46 -03 51 36.8   699 – Lowell Observatory-LONEOS MPS 78461
2003 03 29.37284 13 24 36.89 -03 51 35.9   699 – Lowell Observatory-LONEOS MPS 78461
2003 03 29.38283 13 24 36.38 -03 51 33.9   699 – Lowell Observatory-LONEOS MPS 78461
2003 04 07.42157 13 16 50.33 -03 20 44.5 19.6   644 – Palomar Mountain/NEAT MPS 76505
2003 04 07.44879 13 16 48.87 -03 20 38.8 19.8   644 – Palomar Mountain/NEAT MPS 76505
2003 04 07.47029 13 16 47.69 -03 20 35.0 20.4   644 – Palomar Mountain/NEAT MPS 76505
2003 04 09.30879 13 15 10.18 -03 14 27.2 19.3   644 – Palomar Mountain/NEAT MPS 76505
2003 04 09.33131 13 15 08.95 -03 14 22.8 19.2   644 – Palomar Mountain/NEAT MPS 76505
2003 04 09.36693 13 15 06.99 -03 14 15.8 19.2   644 – Palomar Mountain/NEAT MPS 76505
2003 04 11.31170 13 13 23.46 -03 07 55.2 20.5 V 691 – Steward Observatory, Kitt Peak-Spacewatch MPS 76505
2003 04 11.33886 13 13 21.95 -03 07 50.4 20.1 V 691 – Steward Observatory, Kitt Peak-Spacewatch MPS 76505
2003 04 11.36534 13 13 20.51 -03 07 45.0 20.0 V 691 – Steward Observatory, Kitt Peak-Spacewatch MPS 76505
2003 05 08.15287 12 52 45.61 -02 10 52.4 21.0 V 691 – Steward Observatory, Kitt Peak-Spacewatch MPS 80228
2003 05 08.17893 12 52 44.68 -02 10 51.8 20.6 V 691 – Steward Observatory, Kitt Peak-Spacewatch MPS 80228
2003 05 08.20503 12 52 43.76 -02 10 51.1 21.5 V 691 – Steward Observatory, Kitt Peak-Spacewatch MPS 80228
2005 10 01.39473 03 41 33.00 +19 10 38.2 19.7 V G96 – Mt. Lemmon Survey MPS 146051
2005 10 01.40152 03 41 32.89 +19 10 38.8 19.6 V G96 – Mt. Lemmon Survey MPS 146051
2005 10 01.40826 03 41 32.82 +19 10 39.5 19.6 V G96 – Mt. Lemmon Survey MPS 146051
2005 10 01.41506 03 41 32.74 +19 10 40.2 19.7 V G96 – Mt. Lemmon Survey MPS 146051
2005 10 08.05118 03 39 40.81 +19 20 31.3 19.9 V A50 – Andrushivka Astronomical Observatory MPS 160396
2005 10 24.32522 03 29 59.06 +19 30 59.9 19.4 V 691 – Steward Observatory, Kitt Peak-Spacewatch MPS 146051
2005 10 24.34259 03 29 58.19 +19 30 59.3 19.6 V 691 – Steward Observatory, Kitt Peak-Spacewatch MPS 146051
2005 10 24.35997 03 29 57.33 +19 30 59.3 19.6 V 691 – Steward Observatory, Kitt Peak-Spacewatch MPS 146051
2005 10 27.36885 03 27 28.33 +19 30 42.0 19.2 V G96 – Mt. Lemmon Survey MPS 149502
2005 10 27.37571 03 27 27.97 +19 30 41.9 19.2 V G96 – Mt. Lemmon Survey MPS 149502
2005 10 27.38256 03 27 27.61 +19 30 41.7 19.2 V G96 – Mt. Lemmon Survey MPS 149502
2005 10 28.25202 03 26 42.89 +19 30 29.9 19.7 V 691 – Steward Observatory, Kitt Peak-Spacewatch MPS 147462
2005 10 28.26940 03 26 41.95 +19 30 29.5 19.7 V 691 – Steward Observatory, Kitt Peak-Spacewatch MPS 147462
2005 10 28.28678 03 26 41.01 +19 30 29.4 19.7 V 691 – Steward Observatory, Kitt Peak-Spacewatch MPS 147462
2005 11 01.29464 03 23 03.88 +19 28 50.0 19.6 V 691 – Steward Observatory, Kitt Peak-Spacewatch MPS 147462
2005 11 01.31196 03 23 02.88 +19 28 49.3 19.5 V 691 – Steward Observatory, Kitt Peak-Spacewatch MPS 147462
2005 11 01.32927 03 23 01.87 +19 28 48.9 19.5 V 691 – Steward Observatory, Kitt Peak-Spacewatch MPS 147462
2005 11 07.26284 03 17 18.46 +19 24 26.1 19.5   704 – Lincoln Laboratory ETS, New Mexico MPS 149502
2005 11 07.27511 03 17 17.68 +19 24 25.6 19.4   704 – Lincoln Laboratory ETS, New Mexico MPS 149502
2005 11 07.28732 03 17 16.93 +19 24 24.7 19.6   704 – Lincoln Laboratory ETS, New Mexico MPS 149502
2005 11 07.29953 03 17 16.20 +19 24 24.5 20.2   704 – Lincoln Laboratory ETS, New Mexico MPS 149502
2005 11 07.31175 03 17 15.45 +19 24 24.1 19.8   704 – Lincoln Laboratory ETS, New Mexico MPS 149502
2005 11 10.20958 03 14 22.40 +19 21 33.0 19.5 V 291 – LPL/Spacewatch II MPS 149502
2005 11 10.21370 03 14 22.13 +19 21 33.1 19.5 V 291 – LPL/Spacewatch II MPS 149502
2005 11 10.21765 03 14 21.89 +19 21 32.7 19.5 V 291 – LPL/Spacewatch II MPS 149502
2005 11 11.23448 03 13 20.70 +19 20 27.6 19.4 V 691 – Steward Observatory, Kitt Peak-Spacewatch MPS 149502
2005 11 11.25976 03 13 19.13 +19 20 26.1 19.4 V 691 – Steward Observatory, Kitt Peak-Spacewatch MPS 149502
2005 11 11.28497 03 13 17.55 +19 20 24.5 19.3 V 691 – Steward Observatory, Kitt Peak-Spacewatch MPS 149502
2005 11 28.26688 02 57 06.15 +18 59 06.2 19.3 V 703 – Catalina Sky Survey MPS 152043
2005 11 28.27225 02 57 05.94 +18 59 07.9 19.2 V 703 – Catalina Sky Survey MPS 152043
2005 11 28.27764 02 57 05.58 +18 59 06.8 20.2 V 703 – Catalina Sky Survey MPS 152043
2005 11 28.28302 02 57 05.40 +18 59 06.2 18.7 V 703 – Catalina Sky Survey MPS 152043
2005 11 29.18577 02 56 19.94 +18 58 00.5 19.3 R 699 – Lowell Observatory-LONEOS MPS 152043
2005 11 29.20858 02 56 18.79 +18 57 58.7   699 – Lowell Observatory-LONEOS MPS 152043
2005 11 29.23137 02 56 17.74 +18 57 57.2   699 – Lowell Observatory-LONEOS MPS 152043
2005 11 29.25422 02 56 16.48 +18 57 55.4   699 – Lowell Observatory-LONEOS MPS 152043
2005 12 02.20897 02 53 54.40 +18 54 32.5 20.0   704 – Lincoln Laboratory ETS, New Mexico MPS 153664
2005 12 02.24700 02 53 52.70 +18 54 29.5 19.9   704 – Lincoln Laboratory ETS, New Mexico MPS 153664
2005 12 02.25967 02 53 52.08 +18 54 28.2 20.4   704 – Lincoln Laboratory ETS, New Mexico MPS 153664
2005 12 04.08404 02 52 30.45 +18 52 34.5 19.8 V 691 – Steward Observatory, Kitt Peak-Spacewatch MPS 153664
2005 12 04.10499 02 52 29.50 +18 52 33.1 19.8 V 691 – Steward Observatory, Kitt Peak-Spacewatch MPS 153664
2005 12 04.12937 02 52 28.41 +18 52 31.6 19.7 V 691 – Steward Observatory, Kitt Peak-Spacewatch MPS 153664
2005 12 05.18377 02 51 43.15 +18 51 33.4 19.4   704 – Lincoln Laboratory ETS, New Mexico MPS 153664
2005 12 05.19648 02 51 42.57 +18 51 32.3 19.9   704 – Lincoln Laboratory ETS, New Mexico MPS 153664
2005 12 05.20935 02 51 41.93 +18 51 29.4 20.0   704 – Lincoln Laboratory ETS, New Mexico MPS 153664
2005 12 05.22210 02 51 41.30 +18 51 27.9 20.0   704 – Lincoln Laboratory ETS, New Mexico MPS 153664
2005 12 05.23488 02 51 40.78 +18 51 27.4 20.2   704 – Lincoln Laboratory ETS, New Mexico MPS 153664
2005 12 06.07290 02 51 06.42 +18 50 41.6 19.8 V 691 – Steward Observatory, Kitt Peak-Spacewatch MPS 153664
2005 12 06.09393 02 51 05.55 +18 50 40.2 19.6 V 691 – Steward Observatory, Kitt Peak-Spacewatch MPS 153664
2005 12 06.11497 02 51 04.66 +18 50 39.5 19.7 V 691 – Steward Observatory, Kitt Peak-Spacewatch MPS 153664
2005 12 06.18080 02 51 01.87 +18 50 36.1 19.6 V G96 – Mt. Lemmon Survey MPS 153664
2005 12 06.19263 02 51 01.36 +18 50 35.4 19.6 V G96 – Mt. Lemmon Survey MPS 153664
2005 12 06.19909 02 51 01.08 +18 50 35.1 19.6 V G96 – Mt. Lemmon Survey MPS 153664
2005 12 06.20557 02 51 00.79 +18 50 35.0 19.6 V G96 – Mt. Lemmon Survey MPS 153664
2007 02 16.48498 10 44 02.81 +18 38 22.3 19.5 R 644 – Palomar Mountain/NEAT MPS 200352
2007 02 16.50987 10 44 01.48 +18 38 29.7 19.6 R 644 – Palomar Mountain/NEAT MPS 200352
2007 02 16.53374 10 44 00.16 +18 38 37.2 19.8 R 644 – Palomar Mountain/NEAT MPS 200352
2007 02 26.39048 10 35 03.94 +19 24 14.9 19.8 V 703 – Catalina Sky Survey MPS 201491
2007 02 26.40210 10 35 03.26 +19 24 18.4 19.7 V 703 – Catalina Sky Survey MPS 201491
2007 02 26.41363 10 35 02.61 +19 24 20.8 20.1 V 703 – Catalina Sky Survey MPS 201491
